• In France
  • List of Countries
  • For 7 days
  • Water Temperature
  • Satellite Maps
  • Weather Map
  • Weather Widgets
  • user-avatar
    Login

    Hourly Weather Villavicencio

    Today, 18 December, Monday

    Time Temperature Precipitation Wind Pressure Humidity
    00:00 +23°C° 0 mm 1 mps 717 mmHg 74%
    01:00 +23°C° 0 mm 1 mps 717 mmHg 75%
    02:00 +23°C° 0 mm 1 mps 717 mmHg 75%
    03:00 +22°C° 0 mm 1 mps 717 mmHg 74%
    04:00 +22°C° 0 mm 1 mps 717 mmHg 74%
    05:00 +22°C° 0 mm 1 mps 717 mmHg 72%
    06:00 +23°C° 0 mm 1 mps 718 mmHg 71%
    07:00 +24°C° 0 mm 1 mps 718 mmHg 72%
    08:00 +26°C° 0 mm 1 mps 718 mmHg 63%
    09:00 +28°C° 0 mm 1 mps 718 mmHg 53%
    10:00 +31°C° 0 mm 2 mps 719 mmHg 43%
    11:00 +31°C° 0 mm 2 mps 718 mmHg 43%
    12:00 +32°C° 0 mm 2 mps 717 mmHg 43%
    13:00 +34°C° 0 mm 2 mps 717 mmHg 43%
    14:00 +32°C° 0 mm 2 mps 716 mmHg 46%
    15:00 +32°C° 0 mm 2 mps 715 mmHg 50%
    16:00 +31°C° 0 mm 1 mps 715 mmHg 53%
    17:00 +29°C° 0 mm 1 mps 715 mmHg 60%
    18:00 +27°C° 0 mm 1 mps 715 mmHg 68%
    19:00 +24°C° 0 mm 1 mps 715 mmHg 75%
    20:00 +24°C° 0 mm 1 mps 716 mmHg 73%
    21:00 +24°C° 0 mm 1 mps 717 mmHg 72%
    22:00 +23°C° 0 mm 1 mps 718 mmHg 70%
    23:00 +23°C° 0 mm 1 mps 717 mmHg 70%

    Tomorrow, 19 December, Tuesday

    Time Temperature Precipitation Wind Pressure Humidity
    00:00 +23°C° 0 mm 1 mps 717 mmHg 71%
    01:00 +23°C° 0 mm 1 mps 717 mmHg 71%
    02:00 +22°C° 0 mm 1 mps 717 mmHg 72%
    03:00 +22°C° 0 mm 1 mps 717 mmHg 72%
    04:00 +22°C° 0 mm 1 mps 717 mmHg 73%
    05:00 +22°C° 0 mm 1 mps 717 mmHg 72%
    06:00 +23°C° 0 mm 1 mps 718 mmHg 71%
    07:00 +23°C° 0 mm 1 mps 718 mmHg 71%
    08:00 +26°C° 0 mm 1 mps 718 mmHg 62%
    09:00 +28°C° 0 mm 2 mps 719 mmHg 53%
    10:00 +31°C° 0 mm 2 mps 719 mmHg 45%
    11:00 +32°C° 0 mm 2 mps 718 mmHg 45%
    12:00 +32°C° 0 mm 2 mps 717 mmHg 45%
    13:00 +34°C° 0 mm 2 mps 717 mmHg 46%
    14:00 +32°C° 0 mm 2 mps 716 mmHg 49%
    15:00 +32°C° 0 mm 2 mps 715 mmHg 53%
    16:00 +31°C° 0 mm 1 mps 714 mmHg 56%
    17:00 +29°C° 0 mm 1 mps 715 mmHg 64%
    18:00 +27°C° 0 mm 1 mps 715 mmHg 72%
    19:00 +25°C° 0 mm 1 mps 715 mmHg 79%
    20:00 +24°C° 0 mm 1 mps 716 mmHg 78%
    21:00 +24°C° 0 mm 1 mps 717 mmHg 78%
    22:00 +24°C° 0 mm 1 mps 717 mmHg 77%
    23:00 +23°C° 0 mm 1 mps 717 mmHg 76%

    Day after tomorrow, 20 December, Wednesday

    Time Temperature Precipitation Wind Pressure Humidity
    00:00 +23°C° 0 mm 1 mps 717 mmHg 76%
    01:00 +23°C° 0 mm 1 mps 717 mmHg 75%
    02:00 +23°C° 0 mm 1 mps 716 mmHg 75%
    03:00 +22°C° 0 mm 1 mps 716 mmHg 74%
    04:00 +22°C° 0 mm 1 mps 716 mmHg 74%
    05:00 +22°C° 0 mm 1 mps 716 mmHg 73%
    06:00 +23°C° 0 mm 1 mps 717 mmHg 71%
    07:00 +23°C° 0 mm 1 mps 717 mmHg 70%
    08:00 +26°C° 0 mm 1 mps 718 mmHg 61%
    09:00 +28°C° 0 mm 1 mps 718 mmHg 52%
    10:00 +31°C° 0 mm 1 mps 718 mmHg 43%
    11:00 +32°C° 0 mm 1 mps 718 mmHg 44%
    12:00 +32°C° 0 mm 2 mps 717 mmHg 44%
    13:00 +34°C° 0 mm 2 mps 716 mmHg 45%
    14:00 +32°C° 0 mm 2 mps 715 mmHg 50%
    15:00 +31°C° 0 mm 1 mps 714 mmHg 54%
    16:00 +31°C° 0 mm 1 mps 714 mmHg 58%
    17:00 +29°C° 0 mm 1 mps 714 mmHg 66%
    18:00 +27°C° 0 mm 1 mps 714 mmHg 73%
    19:00 +25°C° 0 mm 2 mps 715 mmHg 81%
    20:00 +25°C° 0 mm 1 mps 715 mmHg 80%
    21:00 +25°C° 0 mm 1 mps 716 mmHg 78%
    22:00 +24°C° 0 mm 1 mps 717 mmHg 77%
    23:00 +24°C° 0 mm 1 mps 716 mmHg 77%

    21 December, Thursday

    Time Temperature Precipitation Wind Pressure Humidity
    00:00 +24°C° 0 mm 1 mps 716 mmHg 77%
    01:00 +24°C° 0 mm 1 mps 716 mmHg 77%
    02:00 +24°C° 0 mm 1 mps 716 mmHg 78%
    03:00 +23°C° 0 mm 1 mps 715 mmHg 79%
    04:00 +23°C° 0 mm 1 mps 715 mmHg 80%
    05:00 +24°C° 0 mm 1 mps 716 mmHg 79%
    06:00 +24°C° 0 mm 1 mps 716 mmHg 79%
    07:00 +24°C° 0 mm 1 mps 717 mmHg 78%
    08:00 +27°C° 0 mm 1 mps 717 mmHg 69%
    09:00 +29°C° 0 mm 1 mps 718 mmHg 61%
    10:00 +31°C° 0 mm 2 mps 718 mmHg 53%
    11:00 +32°C° 0 mm 2 mps 717 mmHg 52%
    12:00 +32°C° 0 mm 2 mps 716 mmHg 52%
    13:00 +34°C° 0 mm 2 mps 716 mmHg 51%
    14:00 +32°C° 0 mm 2 mps 715 mmHg 55%
    15:00 +32°C° 0 mm 2 mps 714 mmHg 59%
    16:00 +31°C° 0 mm 1 mps 714 mmHg 63%
    17:00 +29°C° 0 mm 1 mps 714 mmHg 70%
    18:00 +28°C° 0 mm 1 mps 714 mmHg 77%
    19:00 +26°C° 0 mm 1 mps 715 mmHg 84%
    20:00 +26°C° 0 mm 1 mps 715 mmHg 82%
    21:00 +26°C° 0 mm 1 mps 716 mmHg 81%
    22:00 +26°C° 0 mm 1 mps 717 mmHg 80%
    23:00 +25°C° 0 mm 1 mps 717 mmHg 81%

    22 December, Friday

    Time Temperature Precipitation Wind Pressure Humidity
    00:00 +25°C° 0 mm 1 mps 716 mmHg 81%
    01:00 +25°C° 0 mm 1 mps 716 mmHg 81%
    02:00 +24°C° 0 mm 1 mps 716 mmHg 82%
    03:00 +24°C° 0 mm 1 mps 716 mmHg 83%
    04:00 +24°C° 0 mm 1 mps 716 mmHg 84%
    05:00 +24°C° 0 mm 1 mps 716 mmHg 83%
    06:00 +24°C° 0 mm 1 mps 717 mmHg 82%
    07:00 +25°C° 0 mm 1 mps 717 mmHg 80%
    08:00 +27°C° 0 mm 1 mps 718 mmHg 70%
    09:00 +29°C° 0 mm 2 mps 718 mmHg 60%
    10:00 +31°C° 0 mm 2 mps 718 mmHg 49%
    11:00 +32°C° 0 mm 2 mps 718 mmHg 49%
    12:00 +34°C° 0 mm 2 mps 717 mmHg 49%
    13:00 +34°C° 0 mm 2 mps 716 mmHg 49%
    14:00 +34°C° 0 mm 2 mps 715 mmHg 53%
    15:00 +32°C° 0 mm 2 mps 715 mmHg 56%
    16:00 +32°C° 0 mm 1 mps 714 mmHg 60%
    17:00 +30°C° 0 mm 1 mps 714 mmHg 67%
    18:00 +28°C° 0 mm 1 mps 715 mmHg 74%
    19:00 +26°C° 0 mm 1 mps 715 mmHg 81%
    20:00 +26°C° 0 mm 1 mps 716 mmHg 80%
    21:00 +26°C° 0 mm 1 mps 716 mmHg 79%
    22:00 +25°C° 0 mm 1 mps 717 mmHg 78%
    23:00 +25°C° 0 mm 1 mps 717 mmHg 79%

    23 December, Saturday

    Time Temperature Precipitation Wind Pressure Humidity
    00:00 +25°C° 0 mm 1 mps 716 mmHg 80%
    01:00 +24°C° 0 mm 1 mps 716 mmHg 81%
    02:00 +24°C° 0 mm 1 mps 716 mmHg 81%
    03:00 +24°C° 0 mm 1 mps 716 mmHg 82%
    04:00 +24°C° 0 mm 1 mps 716 mmHg 82%
    05:00 +24°C° 0 mm 1 mps 716 mmHg 80%
    06:00 +24°C° 0 mm 1 mps 717 mmHg 79%
    07:00 +25°C° 0 mm 1 mps 717 mmHg 77%
    08:00 +27°C° 0 mm 1 mps 718 mmHg 67%
    09:00 +29°C° 0 mm 2 mps 718 mmHg 58%
    10:00 +32°C° 0 mm 2 mps 718 mmHg 48%
    11:00 +32°C° 0 mm 2 mps 717 mmHg 48%
    12:00 +34°C° 0 mm 2 mps 716 mmHg 48%
    13:00 +34°C° 0 mm 2 mps 715 mmHg 49%
    14:00 +32°C° 0 mm 2 mps 715 mmHg 53%
    15:00 +32°C° 0 mm 2 mps 714 mmHg 57%
    16:00 +31°C° 0 mm 1 mps 714 mmHg 61%
    17:00 +30°C° 0 mm 1 mps 714 mmHg 66%
    18:00 +28°C° 0 mm 1 mps 714 mmHg 71%
    19:00 +26°C° 0 mm 1 mps 715 mmHg 76%
    20:00 +26°C° 0.1 mm 1 mps 715 mmHg 77%
    21:00 +26°C° 0.1 mm 1 mps 716 mmHg 77%
    22:00 +25°C° 0.1 mm 1 mps 716 mmHg 78%
    23:00 +25°C° 0.1 mm 1 mps 716 mmHg 79%
    Show more